User: anonymous   Login
Location: Unspecified
(0.0000°N, 0.0000°E)
Time: 06:53:06
(UTC+00:00)
Language:

APRIZESAT 3 - Orbit

View from above orbital plane
View from above orbital plane
View from above satellite
View from above satellite

Ground track
Ground track

The orbit data is extracted from the following two-line orbital elements,

1 35686U 09041F   15209.82731691  .00000430  00000-0  53075-4 0  9997
2 35686 098.2004 172.3447 0075516 094.1435 266.8414 14.86450176324755
Epoch (UTC): 28 July 2015 19:51:20
Eccentricity: 0.0075516
inclination: 98.2004°
perigee height: 556 km
apogee height: 662 km
right ascension of ascending node: 172.3447°
argument of perigee: 94.1435°
revolutions per day: 14.86450176
mean anomaly at epoch: 266.8414°
orbit number at epoch: 32475

The dashed part of the orbit path shows where the satellite is in the earth's shadow,  

DLR